Regional Weather Roundup
Issued by NWS

Home | Current Version | Previous Version | Text Only | Print | Product List | Glossary Off
Versions: 1 2 3 4 5 6 7 8 9 10 11 12 13 14 15 16 17 18 19 20 21 22 23 24 25 26 27 28 29 30 31 32 33 34 35 36 37 38 39 40 41 42 43 44 45 46 47 48 49 50

000
ASUS43 KOAX 130302
RWRNE

WEATHER ROUNDUP FOR NEBRASKA
NATIONAL WEATHER SERVICE OMAHA NE
900 PM CST TUE DEC 12 2017

NOTES: SATELLITE DATA IS BEING USED TO AUGMENT CLOUD COVER ABOVE
       12000 FEET.
       "FAIR" INDICATES FEW OR NO CLOUDS BELOW 12,000 FEET WITH NO
       SIGNIFICANT WEATHER AND/OR OBSTRUCTIONS TO VISIBILITY.


NEZ001>004-019>022-054>056-130400-
NEBRASKA PANHANDLE

CITY           SKY/WX    TMP DP  RH WIND       PRES   REMARKS
SCOTTSBLUFF    CLOUDY    39  15  37 W12       30.00F WCI  32
ALLIANCE       CLEAR     29  16  58 W9        29.96F WCI  20
CHADRON        CLEAR     45  19  35 NW7       29.95S
GORDON         CLOUDY    45  22  39 W12       29.90F
KIMBALL        CLEAR     47  10  21 W9G22     30.05F
SIDNEY         CLEAR     45  11  25 W16       30.02F
$$

NEZ057>060-069>072-079>082-130400-
SOUTHWEST NEBRASKA

CITY           SKY/WX    TMP DP  RH WIND       PRES   REMARKS
NORTH PLATTE   CLEAR     29  20  69 NW6       29.92F WCI  23
IMPERIAL       CLEAR     44  16  32 W10       29.98F
LEXINGTON      CLEAR     34  20  56 N3        29.91F
MCCOOK         CLOUDY    40  19  43 W9        29.96F WCI  34
OGALLALA       CLEAR     39  16  40 SW5       29.96F
$$

NEZ005>010-023>029-035>040-094-130400-
NORTH CENTRAL NEBRASKA

CITY           SKY/WX    TMP DP  RH WIND       PRES   REMARKS
VALENTINE      CLOUDY    42  22  44 W12       29.84F
AINSWORTH      CLEAR     39  23  51 W10       29.82F WCI  32
BROKEN BOW     CLEAR     32  20  61 CALM      29.88F
O`NEILL        CLEAR     40  24  53 SW8       29.81F WCI  34
ORD            CLEAR     41  20  43 CALM      29.85F
THEDFORD       PTCLDY    38  20  48 NW6       29.87F WCI  33
$$

NEZ041-046>049-061>064-073>077-083>087-130400-
SOUTH CENTRAL NEBRASKA

CITY           SKY/WX    TMP DP  RH WIND       PRES   REMARKS
GRAND ISLAND   CLEAR     41  21  44 SW12      29.89F
AURORA         CLEAR     37  19  49 SW12      29.89F WCI  29
HASTINGS       CLEAR     40  18  41 SW7       29.91F
HEBRON         CLEAR     40  25  55 SW7       29.93F WCI  35
HOLDREGE       CLEAR     43  21  42 SW9       29.92F
KEARNEY        CLEAR     40  19  43 SW13      29.91F WCI  32
$$

NEZ011>018-030>034-042>045-130400-
NORTHEAST NEBRASKA

CITY           SKY/WX    TMP DP  RH WIND       PRES   REMARKS
NORFOLK        CLEAR     41  19  41 SW18      29.79F
ALBION         CLEAR     39  19  43 S3        29.86F
BLAIR          CLEAR     33  26  75 S10       29.87F WCI  25
FREMONT        CLOUDY    38  25  59 SW8       29.88F WCI  32
TEKAMAH        CLEAR     27  19  72 S13       29.85F WCI  16
WAYNE          CLEAR     35  19  52 SW8       29.79F WCI  29
$$

NEZ050>053-065>068-078-088>093-130400-
SOUTHEAST NEBRASKA

CITY           SKY/WX    TMP DP  RH WIND       PRES   REMARKS
LINCOLN        CLEAR     34  23  64 S6        29.93F WCI  29
OMAHA EPPLEY   CLEAR     29  23  78 SE9       29.90F WCI  20
BEATRICE       CLEAR     37  26  64 SW8       29.93F WCI  31
FALLS CITY     CLEAR     34  25  69 S6        29.96F WCI  29
NEBRASKA CITY  CLEAR     34  28  77 SW12      29.93F WCI  25
PLATTSMOUTH    CLEAR     36  27  69 S12       29.91F WCI  28
$$

NEZ044-045-051>053-067-130400-
OMAHA AREA

CITY           SKY/WX    TMP DP  RH WIND       PRES   REMARKS
OMAHA EPPLEY   CLEAR     29  23  78 SE9       29.90F WCI  20
BLAIR          CLEAR     33  26  75 S10       29.87F WCI  25
FREMONT        CLOUDY    38  25  59 SW8       29.88F WCI  32
MILLARD        CLEAR     32  26  79 SE3       29.90F
OFFUTT AFB     CLEAR     27  22  81 SE5       29.90F WCI  21
PLATTSMOUTH    CLEAR     36  27  69 S12       29.91F WCI  28
WAHOO          FAIR      32  22  67 S6        29.89F WCI  26
$$




USA.gov is the U.S. government's official web portal to all federal, state and local government web resources and services.